Location: Unspecified
(0.0000°N, 0.0000°E)
Time: 00:57:04
(UTC+00:00)

YUBILEINY - Visible Passes

Search period start: 19 January 2019 00:00
Search period end: 29 January 2019 00:00
Orbit: 1478 x 1509 km, 82.5° (Epoch: 18 January)

Date Brightness Start Highest point End Pass type
(mag) Time Alt. Az. Time Alt. Az. Time Alt. Az.
19 Jan ? 19:37:01 10° N 19:45:42 77° E 19:54:29 10° S visible
19 Jan ? 21:40:15 10° W 21:42:09 11° W 21:44:04 10° WSW visible
20 Jan ? 18:48:36 10° NNE 18:56:19 35° E 19:04:02 10° SSE visible
20 Jan ? 20:45:30 10° NW 20:52:42 29° W 20:59:59 10° SSW visible
21 Jan ? 19:54:40 10° NNW 20:03:16 65° W 20:11:58 10° S visible
22 Jan ? 19:05:17 10° N 19:13:52 62° E 19:22:29 10° SSE visible
22 Jan ? 21:05:41 10° WNW 21:10:17 15° W 21:14:54 10° SW visible
23 Jan ? 05:48:08 10° ESE 05:51:07 12° E 05:54:05 10° ENE visible
23 Jan ? 20:13:02 10° NNW 20:20:50 37° W 20:28:44 10° SSW visible
24 Jan ? 19:22:41 10° N 19:31:24 80° W 19:40:14 10° S visible
25 Jan ? 18:33:41 10° NNE 18:42:00 49° E 18:50:21 10° SSE visible
25 Jan ? 20:32:26 10° NW 20:38:24 21° W 20:44:27 10° SW visible
26 Jan ? 19:40:44 10° NNW 19:48:58 47° W 19:57:19 10° SSW visible
27 Jan ? 18:50:48 10° N 18:59:32 83° E 19:08:23 10° S visible
28 Jan ? 05:31:12 10° SE 05:36:50 19° E 05:42:24 10° NE visible
28 Jan ? 19:59:37 10° NW 20:06:32 27° W 20:13:33 10° SSW visible
